Location: Crab Orchard
(37.7292°N, 88.8042°W)
Time: 07:40:14
(UTC+00:00)

SL-8 R/B - Pass Details

Date: 08 December 2019
Orbit: 656 x 667 km, 48.4° (Epoch: 28 January)

Event Time Altitude Azimuth Distance (km) Brightness Sun altitude
Rises 23:30:00 0° 301° (WNW) 2,999 7.7 -10.5°
Reaches altitude 10° 23:32:23 10° 297° (WNW) 2,085 6.9 -10.9°
Maximum altitude 23:37:05 55° 220° (SW) 799 4.5 -11.8°
Drops below altitude 10° 23:41:47 10° 143° (SE) 2,079 6.1 -12.7°
Sets 23:44:09 0° 139° (SE) 2,990 6.8 -13.1°
